Date,TemperatureHighF,TemperatureAvgF,TemperatureLowF,DewpointHighF,DewpointAvgF,DewpointLowF,HumidityHigh,HumidityAvg,HumidityLow,PressureMaxIn,PressureMinIn,WindSpeedMaxMPH,WindSpeedAvgMPH,GustSpeedMaxMPH,PrecipitationSumIn
2013-1-1,49.8,35.6,21.7,23.7,17.6,12.6,83,53,25,30.42,30.32,18,2,21,0.00
2013-1-2,54.0,36.6,19.8,17.8,14.9,9.9,70,44,21,30.40,30.24,13,1,13,0.00
2013-1-3,57.0,36.1,18.7,18.5,13.2,8.2,78,44,16,30.42,30.30,16,1,18,0.00
2013-1-4,55.0,35.2,17.4,14.7,10.9,6.4,71,41,15,30.48,30.34,7,0,7,0.00
2013-1-5,54.1,36.7,19.9,16.2,11.4,7.2,62,38,16,30.50,30.27,7,0,7,0.00
2013-1-6,50.4,43.5,33.8,36.5,32.1,12.4,79,65,33,30.27,30.08,23,4,20,0.00
2013-1-7,59.5,43.4,30.7,34.5,27.0,19.8,92,57,23,30.25,30.13,13,0,7,0.00
2013-1-8,66.0,44.7,28.0,31.8,25.8,16.3,74,50,27,30.33,30.19,10,0,4,0.00
2013-1-9,63.5,48.3,30.6,38.1,30.8,23.2,80,53,32,30.31,29.97,23,1,0,0.00
2013-1-10,48.2,40.5,33.3,39.6,27.2,19.1,80,60,38,30.10,29.88,30,9,30,0.00
2013-1-11,42.5,36.5,31.8,25.2,22.4,18.8,67,57,46,30.20,30.08,21,4,21,0.00
2013-1-12,45.9,33.8,19.8,21.9,15.9,9.4,80,50,25,30.24,30.10,8,0,8,0.00
2013-1-13,47.0,29.7,16.6,18.0,12.7,5.0,81,52,25,30.29,30.10,19,1,19,0.00
2013-1-14,41.4,27.0,13.9,6.9,2.2,-3.0,62,37,18,30.50,30.29,13,1,14,0.00
2013-1-15,49.4,32.6,19.3,14.7,6.9,-2.2,52,35,22,30.63,30.48,16,1,18,0.00
2013-1-16,58.1,40.1,24.3,24.0,16.1,8.4,58,39,25,30.55,30.36,14,1,14,0.00
2013-1-17,64.4,41.3,21.4,20.1,15.0,8.2,69,40,14,30.45,30.28,15,1,19,0.00
2013-1-18,63.9,41.5,22.6,17.1,12.8,6.8,59,34,15,30.38,30.24,13,1,13,0.00
2013-1-19,65.7,40.5,21.4,17.6,12.3,6.1,58,35,13,30.43,30.26,9,0,12,0.00
2013-1-20,65.3,41.3,21.6,16.9,10.7,5.2,55,32,13,30.37,30.20,10,0,11,0.00
2013-1-21,68.4,43.2,23.2,16.0,10.3,4.1,57,30,10,30.32,30.17,14,1,14,0.00
2013-1-22,66.0,43.0,23.5,18.0,10.8,1.9,54,30,12,30.30,30.16,6,0,6,0.00
2013-1-23,64.6,49.7,35.8,21.7,16.2,8.2,41,28,16,30.23,30.10,7,0,7,0.00
2013-1-24,55.6,51.0,46.8,49.1,45.0,21.7,91,81,31,30.23,30.12,7,0,7,0.19
2013-1-25,52.9,50.7,48.4,49.1,47.2,45.0,94,88,81,30.23,30.02,5,0,5,0.14
2013-1-26,63.3,54.0,49.6,53.6,48.0,42.4,95,81,57,30.02,29.87,24,3,24,0.08
2013-1-27,50.0,44.2,38.5,46.0,34.1,26.4,87,68,48,30.04,29.92,29,7,34,0.00
2013-1-28,48.7,41.2,35.4,29.1,26.8,24.4,72,57,39,30.23,30.04,23,4,23,0.00
2013-1-29,58.8,45.8,37.6,31.8,29.7,27.9,70,55,33,30.29,30.12,26,4,28,0.00
2013-1-30,64.2,46.6,31.5,34.7,31.0,26.6,85,58,30,30.42,30.27,10,0,10,0.00
2013-1-31,67.6,48.4,31.6,35.8,32.1,26.6,86,57,29,30.35,30.19,13,0,13,0.00
2013-2-1,67.3,49.0,31.8,35.6,32.3,26.6,84,56,29,30.28,30.18,8,0,8,0.00
2013-2-2,65.1,53.4,40.6,45.5,36.2,32.5,75,55,32,30.32,30.20,7,0,7,0.02
2013-2-3,69.6,55.3,43.0,44.8,37.8,27.3,89,55,28,30.21,30.02,16,1,19,0.02
2013-2-4,71.8,51.9,34.5,35.6,30.0,25.7,77,47,19,30.16,30.01,9,0,9,0.00
2013-2-5,72.1,52.0,34.5,43.3,33.0,26.4,82,53,21,30.06,29.91,25,4,25,0.00
2013-2-6,67.1,52.3,41.0,42.1,26.4,6.8,80,43,15,30.09,29.98,23,3,23,0.00
2013-2-7,64.4,45.2,29.7,39.9,27.5,14.9,70,52,25,30.12,29.94,26,4,26,0.00
2013-2-8,47.7,39.8,35.2,37.0,31.7,27.0,89,73,50,29.94,29.82,26,7,26,0.10
2013-2-9,50.0,41.8,35.8,31.5,29.2,24.8,77,62,41,30.09,29.93,24,6,24,0.00
2013-2-10,54.7,41.5,29.5,35.4,28.2,21.6,85,63,29,30.10,29.99,20,2,20,0.00
2013-2-11,54.9,40.3,26.1,31.5,19.0,7.7,84,50,16,30.30,30.09,15,2,16,0.00
2013-2-12,59.2,39.3,25.2,21.0,16.6,10.8,66,44,17,30.43,30.30,11,0,11,0.00
2013-2-13,66.6,45.0,27.3,27.1,21.3,16.9,73,44,17,30.38,30.19,11,0,11,0.00
2013-2-14,69.4,48.6,30.0,28.8,23.8,20.3,72,42,19,30.31,30.17,19,2,19,0.00
2013-2-15,70.0,51.0,32.5,28.0,22.3,17.4,70,37,15,30.35,30.25,23,2,23,0.00
2013-2-16,70.0,49.7,33.3,24.4,21.2,18.5,68,36,15,30.33,30.03,10,0,10,0.00
2013-2-17,68.4,51.5,32.4,34.9,25.8,17.4,63,40,20,30.03,29.89,24,5,24,0.00
2013-2-18,67.1,48.2,33.3,37.6,29.7,23.7,75,52,28,30.03,29.87,21,3,22,0.00
2013-2-19,50.5,43.9,34.9,38.7,34.9,29.8,88,71,54,29.91,29.67,29,8,32,0.08
2013-2-20,48.6,39.6,32.0,30.2,27.6,24.8,85,63,44,30.01,29.67,30,9,30,0.08
2013-2-21,54.9,44.7,37.0,30.9,26.5,18.1,68,51,25,30.13,29.99,24,5,24,0.00
2013-2-22,63.9,44.9,27.3,32.7,25.6,20.3,81,51,20,30.25,30.13,16,1,16,0.00
2013-2-23,60.1,49.9,38.8,35.6,30.3,23.2,63,47,37,30.17,29.88,46,9,46,0.00
2013-2-24,57.4,45.6,33.6,30.6,10.0,2.8,62,25,12,30.27,30.10,27,4,27,0.00
2013-2-25,67.3,46.6,27.7,27.3,16.0,6.4,47,31,14,30.30,30.07,24,4,25,0.00
2013-2-26,64.8,50.8,37.4,29.8,20.3,9.7,62,34,14,30.22,30.06,24,2,24,0.00
2013-2-27,64.2,46.7,31.1,17.4,14.1,10.0,52,30,14,30.39,30.21,15,1,15,0.00
2013-2-28,70.3,48.8,27.9,21.0,15.5,10.6,60,31,11,30.46,30.35,16,1,16,0.00
2013-3-1,76.5,54.4,32.7,26.2,21.6,15.6,59,31,14,30.45,30.25,19,2,19,0.00
2013-3-2,77.5,57.7,36.1,30.4,24.6,19.0,59,31,14,30.32,30.08,20,1,20,0.00
2013-3-3,69.6,61.4,52.2,40.5,31.9,21.9,59,35,20,30.10,29.88,29,6,29,0.00
2013-3-4,72.9,58.3,47.7,44.2,38.6,31.3,72,51,23,30.04,29.93,19,2,21,0.00
2013-3-5,68.9,53.5,39.7,44.6,40.1,34.2,84,63,30,30.04,29.92,30,4,31,0.00
2013-3-6,57.0,49.3,44.2,42.4,39.5,35.2,83,69,55,30.05,29.97,31,7,31,0.00
2013-3-7,54.0,47.6,42.1,40.5,37.1,32.9,83,68,47,29.97,29.81,23,4,25,0.00
2013-3-8,50.2,43.4,37.2,37.0,35.4,34.3,92,74,57,30.01,29.76,26,5,26,0.30
2013-3-9,58.5,46.7,39.6,36.9,34.0,30.0,80,62,42,30.26,30.00,27,6,27,0.00
2013-3-10,68.5,50.0,29.5,33.1,25.4,18.3,86,47,15,30.39,30.22,14,1,16,0.00
2013-3-11,76.5,54.0,32.7,34.2,26.8,18.5,76,41,12,30.27,30.06,10,0,10,0.00
2013-3-12,81.1,58.6,37.4,34.0,29.2,23.4,76,40,13,30.17,30.03,10,1,12,0.00
2013-3-13,84.6,61.9,39.6,35.2,31.0,27.9,68,37,14,30.21,30.05,11,1,12,0.00
2013-3-14,89.4,65.2,42.6,38.7,33.9,29.5,67,36,14,30.16,29.99,15,1,16,0.00
2013-3-15,87.1,67.8,52.5,45.7,37.6,20.1,61,37,9,30.01,29.85,24,4,24,0.00
2013-3-16,79.5,66.3,57.6,44.4,39.1,31.5,54,38,22,29.91,29.81,30,9,32,0.00
2013-3-17,78.1,63.3,53.2,44.6,33.2,23.5,54,35,14,29.95,29.85,31,8,31,0.00
2013-3-18,77.4,63.4,48.0,34.7,26.9,13.5,48,27,11,30.00,29.90,28,5,31,0.00
2013-3-19,78.4,65.8,54.3,38.5,33.0,25.3,44,30,20,30.05,29.93,26,7,26,0.00
2013-3-20,73.6,63.2,54.7,42.1,39.2,31.8,56,42,23,30.02,29.91,28,8,30,0.00
2013-3-21,74.1,59.1,51.6,45.1,40.6,30.6,77,53,21,29.93,29.76,33,9,34,0.00
2013-3-22,72.7,56.5,46.2,40.1,32.9,27.9,63,43,20,29.94,29.78,34,7,34,0.00
2013-3-23,74.7,57.6,41.2,33.1,18.7,2.1,50,25,10,30.06,29.92,24,4,26,0.00
2013-3-24,77.4,60.4,43.0,31.1,18.9,-1.7,40,22,9,30.05,29.87,19,2,19,0.00
2013-3-25,78.8,61.0,41.5,37.4,30.5,24.3,57,34,15,29.95,29.83,20,3,20,0.00
2013-3-26,77.4,64.5,51.3,44.6,35.5,28.0,48,36,20,29.89,29.80,22,5,22,0.00
2013-3-27,72.0,62.8,56.8,47.3,41.8,37.2,61,47,33,29.95,29.82,25,7,25,0.00
2013-3-28,77.4,62.5,50.7,45.0,41.2,33.3,75,49,25,30.02,29.93,27,3,27,0.00
2013-3-29,81.5,63.8,45.7,44.8,40.4,36.0,75,46,23,30.06,29.96,20,2,20,0.00
2013-3-30,77.4,65.6,55.0,42.4,36.9,27.3,56,37,18,30.03,29.92,30,5,30,0.00
2013-3-31,66.0,57.9,51.4,49.5,44.7,32.0,80,63,39,30.03,29.94,25,6,25,0.00
2013-4-1,67.3,56.7,48.4,44.6,42.2,36.9,78,60,34,30.10,29.99,27,7,27,0.00
2013-4-2,77.4,60.7,50.5,44.6,41.2,35.2,75,51,23,30.06,29.94,23,4,25,0.00
2013-4-3,83.7,64.4,43.5,41.5,36.4,32.0,69,39,18,30.08,29.94,20,2,20,0.00
2013-4-4,77.4,67.0,56.5,47.7,41.2,31.6,61,40,24,29.99,29.89,24,6,26,0.00
2013-4-5,70.9,60.8,54.1,49.1,45.2,39.2,78,58,36,30.00,29.92,33,9,36,0.00
2013-4-6,70.9,60.4,52.7,44.8,41.7,37.4,71,52,32,30.04,29.92,31,12,32,0.00
2013-4-7,73.9,61.4,52.9,45.3,40.8,34.2,74,49,25,29.95,29.75,33,11,35,0.00
2013-4-8,58.6,51.7,45.7,43.3,35.2,27.3,69,53,41,29.83,29.61,38,10,39,0.00
2013-4-9,70.0,55.2,44.1,34.0,26.3,15.4,57,35,14,30.06,29.83,22,3,22,0.00
2013-4-10,80.6,60.1,38.5,32.5,26.4,16.2,66,33,11,30.16,29.96,25,3,25,0.00
2013-4-11,81.9,69.2,61.3,44.8,40.4,32.0,54,36,22,29.97,29.66,27,7,27,0.00
2013-4-12,86.4,68.0,49.5,47.1,41.5,32.4,68,42,15,29.81,29.68,22,2,22,0.00
2013-4-13,78.6,68.8,59.0,46.4,43.0,40.1,55,40,28,29.78,29.63,27,7,27,0.00
2013-4-14,74.3,63.2,54.1,46.0,43.0,37.6,67,50,29,29.72,29.63,35,10,38,0.00
2013-4-15,62.2,54.9,47.8,45.3,42.5,30.6,77,64,51,29.78,29.71,31,11,31,0.00
2013-4-16,57.7,49.0,39.6,31.5,26.7,20.5,57,43,27,30.02,29.78,29,7,29,0.00
2013-4-17,66.6,52.6,40.8,25.9,22.1,15.3,50,32,17,30.20,30.02,22,2,22,0.00
2013-4-18,71.4,54.3,34.9,26.1,18.2,10.0,61,29,11,30.31,30.18,21,2,21,0.00
2013-4-19,82.8,60.8,36.7,31.3,23.7,15.4,60,28,10,30.24,29.98,27,3,27,0.00
2013-4-20,87.1,71.4,55.8,40.5,32.7,23.7,44,26,11,30.00,29.85,25,3,25,0.00
2013-4-21,89.4,70.5,48.0,39.7,34.7,25.3,61,30,12,29.95,29.83,30,3,30,0.00
2013-4-22,87.6,74.1,65.1,48.2,36.8,21.2,39,27,15,29.90,29.71,26,5,29,0.00
2013-4-23,81.0,69.5,57.0,42.3,32.1,22.3,51,28,13,29.91,29.73,24,4,24,0.00
2013-4-24,83.7,64.0,48.7,48.6,38.2,25.9,67,42,13,29.85,29.71,24,2,26,0.00
2013-4-25,77.2,63.5,51.8,45.7,43.2,38.5,74,50,29,30.00,29.81,26,4,26,0.00
2013-4-26,88.3,70.4,51.6,45.9,40.5,25.3,71,38,11,30.08,29.97,20,2,20,0.00
2013-4-27,93.0,74.1,54.1,42.8,37.0,23.5,58,29,10,30.10,29.91,24,3,24,0.00
2013-4-28,95.5,79.2,65.8,48.0,39.1,26.2,46,26,10,29.94,29.73,24,4,24,0.00
2013-4-29,92.8,77.5,57.6,47.1,37.0,27.1,41,25,11,29.78,29.62,23,3,24,0.00
2013-4-30,84.0,73.5,64.8,50.5,43.8,37.8,50,35,24,29.70,29.60,24,8,25,0.00
2013-5-1,83.3,70.3,54.0,45.7,24.5,2.7,68,26,6,30.09,29.70,24,5,27,0.00
2013-5-2,80.4,64.6,44.1,18.0,11.7,3.4,30,14,6,30.25,30.09,24,4,24,0.00
2013-5-3,91.8,68.5,41.5,26.8,18.2,3.4,44,17,6,30.11,29.76,22,2,22,0.00
2013-5-4,83.1,72.4,60.4,40.3,33.7,20.8,42,25,15,29.77,29.55,32,5,32,0.00
2013-5-5,63.9,57.0,51.6,45.9,43.5,35.2,75,61,39,29.86,29.65,25,6,28,0.00
2013-5-6,64.2,55.6,50.5,50.9,45.4,41.7,89,69,51,29.96,29.84,25,4,25,0.10
2013-5-7,67.3,57.3,49.5,46.2,43.6,41.5,79,62,44,29.99,29.94,26,5,26,0.00
2013-5-8,72.9,61.1,51.6,48.2,45.1,42.3,76,57,37,30.03,29.95,27,4,27,0.00
2013-5-9,80.1,65.5,52.0,50.0,46.4,41.5,78,53,26,30.02,29.92,22,2,24,0.00
2013-5-10,90.5,73.2,58.8,50.9,47.1,38.8,66,43,18,30.05,29.92,23,3,23,0.00
2013-5-11,95.9,79.5,58.6,50.9,45.5,37.2,64,34,14,30.04,29.91,16,2,16,0.00
2013-5-12,98.8,83.2,65.7,53.8,46.6,37.8,55,31,13,30.02,29.84,22,2,22,0.00
2013-5-13,98.1,83.9,65.5,52.7,43.3,35.6,50,27,13,29.92,29.80,22,3,23,0.00
2013-5-14,87.1,75.9,62.1,44.2,37.3,22.1,45,27,10,29.86,29.75,25,3,25,0.00
2013-5-15,88.9,76.1,68.4,50.2,45.4,39.4,44,34,19,29.86,29.78,26,7,27,0.00
2013-5-16,79.3,69.5,61.7,50.4,41.7,35.8,57,37,25,29.82,29.76,29,9,29,0.00
2013-5-17,77.5,65.8,57.0,51.4,44.6,39.0,67,48,26,29.88,29.79,33,10,34,0.00
2013-5-18,83.8,69.0,57.6,41.0,33.3,26.8,45,28,15,29.96,29.87,30,7,33,0.00
2013-5-19,88.0,72.3,60.3,42.4,36.6,28.8,48,29,13,29.93,29.81,29,7,32,0.00
2013-5-20,90.3,73.8,54.0,46.2,36.7,27.7,57,30,11,29.98,29.83,20,2,21,0.00
2013-5-21,89.1,74.6,57.4,52.2,43.5,36.3,54,35,18,29.87,29.70,26,4,26,0.00
2013-5-22,77.9,65.6,57.2,43.2,34.4,24.6,43,32,24,29.75,29.65,30,10,30,0.00
2013-5-23,73.8,62.8,52.7,48.0,34.4,16.0,63,36,22,29.86,29.74,29,8,29,0.00
2013-5-24,79.9,64.2,46.2,46.8,36.3,27.9,62,38,17,29.89,29.81,27,4,28,0.00
2013-5-25,76.5,66.4,57.6,48.4,41.8,30.0,54,41,29,29.89,29.84,27,5,27,0.00
2013-5-26,79.3,67.2,58.3,51.1,42.4,37.2,54,42,25,29.94,29.88,28,8,28,0.00
2013-5-27,81.7,68.7,58.5,46.2,41.1,34.7,59,39,23,29.91,29.79,32,10,34,0.00
2013-5-28,73.6,65.6,57.0,50.7,47.0,41.2,70,52,36,29.81,29.67,39,11,41,0.00
2013-5-29,81.3,70.1,59.5,49.6,47.0,41.2,66,45,26,29.80,29.64,33,11,33,0.00
2013-5-30,90.9,75.5,62.2,47.7,36.5,16.0,50,27,9,29.80,29.70,31,8,31,0.00
2013-5-31,98.8,80.9,66.0,43.3,36.9,29.3,34,22,10,29.83,29.71,24,4,24,0.00
2013-6-1,104.2,82.1,59.4,49.6,42.1,32.5,56,29,10,29.81,29.64,16,2,19,0.00
2013-6-2,93.7,80.4,64.0,51.1,44.5,35.2,57,30,18,29.67,29.54,26,3,27,0.00
2013-6-3,90.7,76.7,61.5,50.5,44.2,38.5,51,33,20,29.72,29.60,24,4,26,0.00
2013-6-4,92.1,75.9,57.0,48.7,42.4,31.5,67,34,14,29.79,29.70,23,3,26,0.00
2013-6-5,99.7,79.4,59.4,52.3,46.3,38.8,60,33,16,29.83,29.71,25,2,26,0.00
2013-6-6,102.0,81.6,62.1,55.6,50.4,43.2,64,37,15,29.77,29.66,23,2,24,0.00
2013-6-7,107.4,84.9,64.6,56.3,49.4,39.2,62,34,11,29.72,29.58,19,2,22,0.00
2013-6-8,108.9,86.8,70.5,58.5,48.2,38.7,54,29,11,29.68,29.57,29,2,29,0.00
2013-6-9,95.4,80.9,65.1,52.2,42.5,34.9,53,28,15,29.73,29.66,27,3,28,0.00
2013-6-10,82.8,71.5,57.4,50.2,45.4,38.1,66,41,24,29.83,29.70,26,6,26,0.00
2013-6-11,96.3,80.8,61.0,51.4,42.6,35.1,56,28,13,29.84,29.74,24,3,27,0.00
2013-6-12,90.9,80.3,67.6,49.3,43.6,36.1,51,28,16,29.83,29.76,29,5,29,0.00
2013-6-13,92.1,78.2,67.5,48.0,37.4,27.9,44,25,14,29.87,29.78,29,7,29,0.00
2013-6-14,95.9,77.0,60.6,50.0,37.6,27.7,49,26,12,29.82,29.68,24,4,24,0.00
2013-6-15,88.3,76.0,61.9,45.1,35.3,24.3,48,25,11,29.83,29.72,30,4,30,0.00
2013-6-16,92.8,78.9,66.2,41.0,34.8,25.5,36,22,9,30.01,29.82,30,7,30,0.00
2013-6-17,93.0,79.4,67.3,42.8,38.1,32.5,36,24,13,30.01,29.91,29,9,29,0.00
2013-6-18,90.5,77.3,66.9,52.2,43.1,35.1,46,31,16,29.95,29.83,29,8,29,0.00
2013-6-19,83.7,69.0,56.1,45.3,34.3,24.6,50,31,12,29.96,29.87,31,10,31,0.00
2013-6-20,90.0,73.7,60.3,39.2,31.9,21.7,40,24,9,29.94,29.86,30,8,30,0.00
2013-6-21,91.6,76.7,64.8,40.1,34.9,23.2,38,23,13,29.93,29.86,30,8,33,0.00
2013-6-22,96.4,80.1,67.5,51.4,39.8,33.4,36,25,12,29.92,29.80,25,6,25,0.00
2013-6-23,84.0,75.3,67.6,54.3,47.4,39.4,56,38,27,29.85,29.77,25,9,25,0.00
2013-6-24,76.1,68.8,62.2,56.3,52.4,46.8,67,56,48,29.96,29.81,26,8,26,0.00
2013-6-25,90.9,76.8,64.8,56.5,53.5,50.2,62,46,30,30.00,29.92,27,7,27,0.00
2013-6-26,99.9,84.8,70.5,60.8,56.7,53.4,58,40,23,30.00,29.92,24,4,24,0.00
2013-6-27,102.2,85.6,68.5,60.1,55.9,52.3,63,39,21,30.05,29.97,20,2,20,0.00
2013-6-28,107.4,89.8,70.0,61.2,54.9,50.5,59,33,17,30.02,29.86,24,3,26,0.00
2013-6-29,111.0,93.9,77.9,58.6,53.2,47.8,44,27,14,29.91,29.77,20,3,20,0.00
2013-6-30,114.3,94.4,76.8,58.1,51.5,45.3,40,25,11,29.82,29.71,19,2,19,0.00
2013-7-1,102.9,87.8,73.0,59.0,53.4,46.2,59,33,20,29.89,29.75,25,4,26,0.00
2013-7-2,102.2,89.0,75.2,59.2,52.0,47.1,49,30,17,29.95,29.87,21,4,31,0.00
2013-7-3,106.0,91.7,83.1,58.5,53.0,49.1,34,27,19,29.90,29.74,20,4,26,0.00
2013-7-4,104.4,89.7,73.6,59.9,54.9,50.9,54,32,21,29.78,29.68,27,4,27,0.00
2013-7-5,98.1,86.9,75.9,60.3,54.1,49.6,51,33,26,29.77,29.70,25,4,27,0.00
2013-7-6,98.1,84.2,71.4,56.3,50.6,45.1,50,33,19,29.79,29.71,25,3,25,0.00
2013-7-7,101.7,86.1,66.9,54.3,47.4,39.4,59,30,14,29.87,29.76,24,3,26,0.00
2013-7-8,102.9,84.9,65.5,50.7,43.3,36.5,55,27,11,29.99,29.86,18,2,24,0.00
2013-7-9,105.3,87.6,66.7,52.7,44.6,36.7,48,25,11,30.04,29.94,26,2,28,0.00
2013-7-10,100.6,85.6,72.9,55.4,48.3,41.7,45,29,15,29.99,29.86,22,4,26,0.00
2013-7-11,92.3,81.7,75.2,58.5,51.0,41.7,54,35,22,29.96,29.87,20,2,22,0.00
2013-7-12,95.5,81.1,68.2,57.4,50.6,42.1,61,37,18,29.95,29.86,24,3,26,0.00
2013-7-13,101.5,85.9,66.4,53.6,47.0,41.2,56,28,16,29.97,29.86,23,2,23,0.00
2013-7-14,101.7,87.2,69.8,52.9,42.8,37.4,40,23,13,29.96,29.83,27,3,28,0.00
2013-7-15,95.7,84.5,72.0,51.8,40.3,34.5,38,22,17,29.88,29.79,34,4,34,0.00
2013-7-16,93.6,80.4,63.3,39.9,31.9,21.0,34,18,8,30.00,29.85,25,5,25,0.00
2013-7-17,99.7,81.9,62.1,46.9,36.0,22.5,49,21,11,30.06,29.97,21,2,22,0.00
2013-7-18,104.7,82.8,60.8,47.5,39.1,31.5,45,23,9,30.04,29.86,20,1,20,0.00
2013-7-19,104.9,85.5,64.8,50.4,44.6,38.5,51,26,12,29.93,29.77,21,2,22,0.00
2013-7-20,102.4,85.8,70.9,62.8,51.4,41.7,44,32,15,29.85,29.74,23,2,32,0.00
2013-7-21,92.8,82.4,72.1,64.9,59.0,54.7,76,46,34,29.96,29.78,14,1,15,0.01
2013-7-22,94.8,80.9,68.4,68.2,62.4,50.9,91,57,29,29.99,29.91,31,3,31,0.05
2013-7-23,96.3,81.8,69.4,65.3,57.7,49.3,62,45,31,30.02,29.91,23,3,24,0.00
2013-7-24,100.9,86.2,69.4,60.8,56.2,50.7,66,38,23,29.98,29.85,22,4,23,0.00
2013-7-25,101.5,89.1,76.1,57.4,52.3,48.6,46,29,18,29.98,29.89,26,4,26,0.00
2013-7-26,95.5,86.5,79.0,64.2,56.0,50.7,52,36,28,30.05,29.97,15,2,15,0.00
2013-7-27,98.1,85.8,74.5,63.0,57.1,51.4,53,39,28,30.01,29.83,26,3,27,0.00
2013-7-28,95.0,83.7,71.2,59.2,46.4,24.4,62,30,13,29.87,29.79,27,4,27,0.00
2013-7-29,92.8,79.8,65.8,44.4,36.9,23.5,35,22,12,30.03,29.87,24,3,26,0.00
2013-7-30,96.4,81.4,65.5,50.9,43.3,29.7,44,27,17,30.09,29.99,25,3,25,0.00
2013-7-31,97.3,79.3,63.3,51.1,46.1,33.3,59,33,16,30.08,29.95,28,4,28,0.00
2013-8-1,94.6,80.6,65.5,47.8,41.9,35.6,48,27,14,30.01,29.90,28,7,29,0.00
2013-8-2,93.4,79.4,65.5,48.2,40.3,31.5,41,26,14,29.96,29.89,23,5,25,0.00
2013-8-3,96.1,79.0,61.2,51.6,40.3,31.5,53,27,12,29.99,29.90,22,3,24,0.00
2013-8-4,96.3,79.6,60.3,46.0,36.4,23.5,52,24,8,30.01,29.92,25,3,25,0.00
2013-8-5,96.3,79.9,61.3,45.5,33.4,18.1,49,21,7,30.00,29.91,19,4,25,0.00
2013-8-6,93.6,80.8,70.9,45.3,31.0,10.2,33,18,7,30.01,29.94,29,5,29,0.00
2013-8-7,90.0,78.2,67.6,47.1,39.5,28.4,37,26,13,30.05,29.98,25,5,27,0.00
2013-8-8,89.2,76.3,65.7,50.0,42.2,31.5,48,32,13,30.01,29.91,19,5,22,0.00
2013-8-9,90.0,75.1,59.0,49.1,37.2,21.2,56,29,9,29.99,29.91,23,3,23,0.00
2013-8-10,92.1,78.0,63.0,50.5,45.6,33.1,55,33,19,30.02,29.95,18,3,20,0.00
2013-8-11,95.9,79.2,63.1,50.9,46.5,43.0,54,33,17,30.01,29.89,19,3,23,0.00
2013-8-12,99.1,81.0,61.9,50.9,45.6,39.0,54,31,13,29.99,29.89,21,2,21,0.00
2013-8-13,101.8,84.0,63.7,49.3,42.7,29.5,50,26,11,29.99,29.88,23,2,23,0.00
2013-8-14,103.5,86.7,68.4,50.0,41.7,34.2,41,22,10,29.96,29.84,19,2,20,0.00
2013-8-15,102.6,81.6,67.1,51.8,42.7,35.1,40,27,14,29.97,29.88,27,1,27,0.00
2013-8-16,100.2,89.4,71.1,57.2,50.7,41.7,44,27,21,29.98,29.89,25,4,25,0.00
2013-8-17,100.8,86.4,70.5,55.2,45.5,36.1,47,26,12,29.96,29.82,22,3,22,0.00
2013-8-18,103.5,84.4,65.5,63.0,50.3,41.2,54,32,18,29.97,29.79,25,2,25,0.00
2013-8-19,102.4,84.2,72.1,64.9,58.2,45.5,66,43,25,30.00,29.84,20,2,21,0.00
2013-8-20,98.2,83.1,68.5,59.2,50.3,40.8,65,35,16,29.94,29.85,20,3,20,0.00
2013-8-21,99.3,84.7,69.4,52.3,46.5,40.1,51,28,16,29.96,29.87,22,2,22,0.00
2013-8-22,98.8,85.6,69.1,52.5,43.2,33.8,42,24,16,29.97,29.84,23,2,23,0.00
2013-8-23,97.9,81.1,62.1,48.2,40.2,32.5,56,26,11,29.91,29.78,21,2,23,0.00
2013-8-24,95.7,78.6,58.5,45.0,37.8,27.7,56,27,11,29.94,29.81,22,2,23,0.00
2013-8-25,95.4,78.3,58.3,49.6,37.1,27.9,48,24,13,30.01,29.89,22,2,23,0.00
2013-8-26,93.4,77.0,60.8,64.9,52.1,33.1,60,43,25,30.06,29.89,14,1,14,0.00
2013-8-27,94.5,79.7,66.9,65.5,61.0,56.3,78,55,36,29.96,29.81,16,2,16,0.00
2013-8-28,96.6,82.3,67.1,62.2,58.3,53.1,74,46,31,29.96,29.84,24,2,24,0.00
2013-8-29,102.7,86.2,68.5,61.2,54.1,49.6,56,35,22,30.02,29.90,21,2,21,0.00
2013-8-30,100.0,84.0,71.1,65.8,58.6,48.0,58,43,27,30.04,29.91,23,2,23,0.00
2013-8-31,93.0,83.4,77.5,66.6,65.2,63.9,67,55,40,30.00,29.89,26,5,26,0.00
2013-9-1,93.7,82.7,75.6,65.8,62.8,60.1,66,52,36,29.96,29.86,24,4,26,0.00
2013-9-2,97.2,84.9,73.8,61.9,57.7,51.4,63,41,25,29.96,29.83,23,4,24,0.00
2013-9-3,97.2,84.6,71.2,60.8,55.6,50.7,61,39,26,29.96,29.86,25,3,25,0.00
2013-9-4,101.7,84.4,68.2,60.6,54.9,49.8,62,39,22,30.00,29.88,18,2,19,0.00
2013-9-5,100.6,85.5,69.6,61.3,53.1,48.0,59,35,20,29.96,29.86,21,2,23,0.00
2013-9-6,100.8,84.0,65.7,58.6,50.2,44.6,55,33,19,29.97,29.83,23,2,23,0.00
2013-9-7,101.1,83.5,64.2,51.1,46.1,40.6,55,29,16,29.96,29.82,21,2,22,0.00
2013-9-8,99.3,83.2,65.8,54.0,46.0,39.9,58,29,15,29.90,29.76,22,2,22,0.00
2013-9-9,98.6,82.5,72.0,55.4,49.8,39.6,51,34,20,29.89,29.71,23,2,24,0.00
2013-9-10,91.8,80.4,69.6,47.1,42.4,39.4,38,26,19,29.91,29.77,21,3,25,0.00
2013-9-11,91.8,78.7,66.9,49.8,43.5,35.8,42,29,21,29.98,29.91,24,3,25,0.00
2013-9-12,95.2,79.8,62.8,50.2,43.1,34.9,56,29,14,29.98,29.86,20,3,21,0.00
2013-9-13,98.1,80.8,63.3,52.9,47.4,40.8,51,33,19,29.90,29.71,20,2,21,0.00
2013-9-14,101.1,82.2,63.1,54.7,49.9,45.9,59,35,16,29.81,29.68,15,1,16,0.00
2013-9-15,99.3,83.4,63.3,54.9,47.5,41.9,63,32,16,29.85,29.75,20,2,22,0.00
2013-9-16,96.8,79.7,61.0,50.2,43.8,32.0,59,31,17,29.91,29.78,24,2,27,0.00
2013-9-17,89.2,76.2,65.5,49.5,39.6,19.4,46,29,10,29.86,29.74,22,5,24,0.00
2013-9-18,91.8,74.0,59.7,46.0,41.2,33.4,53,33,14,29.87,29.78,21,2,21,0.00
2013-9-19,94.8,74.3,51.6,47.8,41.3,32.9,67,36,13,29.94,29.80,12,1,14,0.00
2013-9-20,89.2,72.1,56.1,54.3,46.1,39.6,64,42,21,29.89,29.80,20,3,22,0.00
2013-9-21,78.4,68.1,59.0,52.9,48.9,44.2,66,51,38,29.91,29.80,28,6,29,0.00
2013-9-22,73.2,61.6,53.1,48.0,42.6,38.8,72,52,30,30.02,29.87,31,7,31,0.00
2013-9-23,89.4,67.3,47.7,45.0,40.6,34.7,78,43,17,30.12,29.98,13,0,13,0.00
2013-9-24,89.8,71.8,52.3,46.0,39.1,32.0,70,35,16,30.04,29.89,24,4,24,0.00
2013-9-25,76.3,65.1,56.8,48.7,42.6,38.5,61,45,32,29.90,29.74,25,9,26,0.00
2013-9-26,70.2,58.5,51.1,39.9,35.5,26.8,63,44,21,30.04,29.80,26,7,26,0.00
2013-9-27,75.9,60.0,43.3,37.8,31.2,22.8,73,38,16,30.21,30.04,15,2,18,0.00
2013-9-28,83.8,62.4,41.7,36.7,31.1,24.4,66,36,13,30.25,30.11,11,0,11,0.00
2013-9-29,90.0,68.6,46.9,37.6,31.3,23.9,56,29,11,30.20,30.06,23,4,23,0.00
2013-9-30,85.8,74.2,65.5,43.9,38.3,30.9,41,28,20,30.10,29.92,27,7,27,0.00
2013-10-1,86.4,72.0,56.7,52.0,42.1,33.3,50,35,22,29.99,29.90,24,4,24,0.00
2013-10-2,81.3,70.1,61.3,52.0,45.7,37.8,57,43,23,29.97,29.89,24,6,25,0.00
2013-10-3,74.1,64.4,54.3,44.1,35.6,30.2,47,35,21,30.04,29.88,28,8,28,0.00
2013-10-4,72.5,58.9,41.5,34.5,24.2,16.7,63,31,12,30.31,30.04,18,4,29,0.00
2013-10-5,77.5,59.7,39.6,28.4,22.1,13.6,51,26,12,30.43,30.29,26,3,26,0.00
2013-10-6,84.0,60.9,39.4,35.8,26.4,18.7,69,32,10,30.35,30.15,19,0,20,0.00
2013-10-7,84.0,63.5,45.0,35.1,27.9,20.3,64,31,10,30.16,29.99,21,2,21,0.00
2013-10-8,76.6,66.0,55.0,46.2,36.1,27.5,71,35,21,29.99,29.80,30,6,30,0.00
2013-10-9,56.7,52.1,45.7,46.8,43.2,37.8,84,72,58,29.91,29.73,28,5,28,0.05
2013-10-10,67.5,54.0,41.4,43.9,39.7,35.1,82,60,40,30.12,29.90,24,4,25,0.05
2013-10-11,77.5,57.5,40.1,45.0,40.1,35.6,85,57,25,30.20,30.05,15,0,16,0.00
2013-10-12,78.3,60.0,43.3,43.7,39.3,33.4,85,51,21,30.11,29.96,21,3,23,0.00
2013-10-13,71.2,60.0,49.8,42.3,36.8,31.1,72,43,26,30.15,29.99,19,4,22,0.00
2013-10-14,74.1,56.5,39.4,40.8,33.7,24.6,79,48,21,30.28,30.13,18,1,18,0.00
2013-10-15,75.7,57.7,39.6,33.6,28.8,20.5,74,37,19,30.21,30.10,15,1,15,0.00
2013-10-16,74.5,56.6,39.4,33.1,27.1,20.8,60,35,16,30.33,30.18,15,1,15,0.00
2013-10-17,81.1,58.0,36.7,36.0,30.0,19.4,69,38,16,30.24,30.06,19,1,19,0.00
2013-10-18,81.7,60.3,40.8,34.9,30.7,22.8,68,38,13,30.23,30.12,13,1,13,0.00
2013-10-19,83.8,59.8,37.0,36.9,29.1,19.8,70,37,10,30.26,30.12,7,0,7,0.00
2013-10-20,86.4,61.2,39.6,39.6,31.2,21.9,74,39,10,30.14,29.99,9,0,9,0.00
2013-10-21,83.8,60.9,39.6,37.0,29.9,20.3,72,37,11,30.15,30.04,11,0,12,0.00
2013-10-22,85.3,61.7,41.5,35.4,28.5,20.1,68,33,12,30.19,30.03,9,0,10,0.00
2013-10-23,84.0,62.4,43.5,36.9,31.1,24.3,71,35,14,30.09,29.96,11,0,11,0.00
2013-10-24,85.8,63.6,43.5,42.3,33.1,25.5,75,38,12,30.13,30.01,16,1,16,0.00
2013-10-25,86.0,64.8,46.2,38.5,32.7,27.7,62,34,13,30.23,30.12,6,0,6,0.00
2013-10-26,85.6,62.6,42.6,37.9,33.1,25.0,75,39,13,30.28,30.11,9,0,9,0.00
2013-10-27,81.0,61.3,44.1,47.3,37.1,28.0,73,45,17,30.13,29.80,27,4,27,0.00
2013-10-28,59.4,53.2,49.1,47.7,41.5,35.6,78,65,42,30.02,29.77,31,7,31,0.00
2013-10-29,58.8,51.8,46.0,42.3,39.6,36.9,80,64,48,30.12,30.02,24,5,24,0.01
2013-10-30,65.5,51.7,39.9,39.0,34.9,27.0,85,56,26,30.25,30.12,11,1,12,0.00
2013-10-31,70.3,51.1,33.1,37.2,31.6,24.8,81,52,22,30.35,30.23,10,0,10,0.00
2013-11-1,75.0,54.0,35.2,34.0,30.1,25.3,76,45,20,30.38,30.19,15,1,15,0.00
2013-11-2,77.2,56.5,36.5,34.0,30.7,26.8,73,42,18,30.24,29.99,15,1,15,0.00
2013-11-3,72.9,60.3,48.9,47.5,38.1,29.8,75,46,26,30.01,29.86,24,5,24,0.00
2013-11-4,67.8,53.2,41.5,42.8,32.0,26.1,79,47,24,30.15,29.86,14,1,14,0.00
2013-11-5,63.3,47.7,33.1,29.1,20.0,7.3,79,39,16,30.44,30.15,20,2,21,0.00
2013-11-6,68.9,49.4,30.6,27.1,19.0,12.4,59,34,13,30.54,30.40,18,1,19,0.00
2013-11-7,72.7,52.3,35.6,34.5,24.7,16.2,62,38,17,30.43,30.22,6,0,6,0.00
2013-11-8,76.1,54.2,34.3,31.3,25.0,14.0,57,36,14,30.25,30.08,6,0,6,0.00
2013-11-9,74.8,53.6,37.2,31.3,26.9,19.9,72,41,14,30.24,30.14,9,0,9,0.00
2013-11-10,73.2,51.2,36.7,32.0,26.4,19.9,71,42,16,30.34,30.17,5,0,6,0.00
2013-11-11,76.6,53.8,34.3,35.6,28.3,20.3,75,42,17,30.27,30.15,9,0,10,0.00
2013-11-12,72.9,54.9,42.1,35.8,30.1,22.6,66,43,17,30.33,30.23,6,0,6,0.00
2013-11-13,78.4,55.5,35.2,34.9,28.1,21.2,69,40,13,30.26,30.08,6,0,6,0.00
2013-11-14,78.8,59.0,38.7,35.4,31.2,27.5,73,39,17,30.14,29.78,14,0,14,0.00
2013-11-15,67.1,59.2,51.1,46.2,40.2,30.6,75,51,31,29.79,29.63,28,6,28,0.00
2013-11-16,60.6,54.5,49.3,45.3,43.6,37.9,77,67,53,29.93,29.73,28,6,28,0.00
2013-11-17,64.2,52.2,41.4,43.2,38.3,34.0,88,62,34,30.16,29.93,13,0,13,0.00
2013-11-18,66.6,51.5,36.1,46.4,39.9,31.8,85,67,42,30.22,30.06,13,1,13,0.00
2013-11-19,65.8,56.8,48.0,45.7,42.8,38.7,80,61,37,30.09,29.91,25,4,25,0.00
2013-11-20,64.6,56.7,52.3,48.6,45.7,38.7,84,67,50,29.94,29.83,29,6,29,0.00
2013-11-21,59.7,51.6,43.3,51.4,47.3,40.3,92,86,66,30.01,29.83,19,2,20,0.97
2013-11-22,45.0,43.0,41.5,40.3,38.0,36.3,89,83,74,30.14,30.00,20,5,20,0.14
2013-11-23,47.5,43.8,40.8,41.4,39.6,37.2,92,85,72,30.23,30.12,11,1,11,0.14
2013-11-24,56.8,45.8,36.7,42.6,38.7,34.5,94,78,52,30.32,30.22,10,0,10,0.04
2013-11-25,61.5,46.0,32.9,41.5,36.9,30.4,92,73,42,30.40,30.30,6,0,8,0.00
2013-11-26,63.5,48.5,34.5,42.3,37.4,31.6,91,68,42,30.38,30.21,11,0,11,0.00
2013-11-27,62.1,49.9,40.6,42.3,38.9,35.2,89,68,45,30.21,29.99,10,1,11,0.00
2013-11-28,57.7,47.1,37.9,40.6,37.7,33.8,87,71,50,30.17,30.02,7,0,7,0.00
2013-11-29,54.1,47.9,41.4,44.6,40.3,36.1,87,76,59,30.30,30.17,9,0,9,0.02
2013-11-30,64.4,49.2,36.7,43.5,37.6,34.0,93,68,34,30.35,30.23,9,0,9,0.00
2013-12-1,65.7,47.7,33.8,37.9,34.8,30.2,90,65,32,30.42,30.28,9,0,9,0.00
2013-12-2,73.8,52.4,33.4,39.7,30.5,23.5,87,51,19,30.32,29.94,18,2,19,0.00
2013-12-3,65.1,54.7,41.2,46.9,36.6,27.1,84,53,29,29.94,29.67,29,8,29,0.02
2013-12-4,48.6,39.7,31.3,30.0,21.2,15.6,64,49,28,30.08,29.81,22,3,22,0.00
2013-12-5,46.8,35.3,26.4,22.8,17.6,12.2,77,51,28,30.22,30.06,8,0,9,0.00
2013-12-6,51.1,36.4,23.0,34.7,23.5,13.6,74,60,40,30.27,30.15,21,2,22,0.00
2013-12-7,45.0,39.2,33.6,37.8,29.1,20.7,86,67,57,30.19,30.01,34,9,36,0.02
2013-12-8,43.3,33.4,24.6,22.6,18.1,14.2,75,55,32,30.40,30.17,8,1,18,0.00
2013-12-9,44.4,30.5,18.1,16.2,7.9,-0.8,81,45,17,30.62,30.38,24,3,25,0.00
2013-12-10,47.7,30.5,17.4,13.6,8.2,4.1,67,42,17,30.61,30.36,8,0,8,0.00
2013-12-11,52.5,34.3,19.9,17.4,13.4,9.1,76,46,20,30.49,30.38,8,0,8,0.00
2013-12-12,58.3,40.9,24.6,21.7,18.6,16.0,76,45,20,30.43,30.26,7,0,7,0.00
2013-12-13,64.4,44.7,29.7,24.4,19.0,14.5,67,40,16,30.42,30.23,11,0,11,0.00
2013-12-14,61.2,42.7,26.8,25.3,20.5,15.4,72,45,22,30.54,30.41,18,2,18,0.00
2013-12-15,62.8,44.1,27.7,26.1,22.9,19.2,75,46,22,30.53,30.36,10,0,10,0.00
2013-12-16,64.0,46.7,32.7,28.4,25.6,22.3,74,47,22,30.44,30.31,2,0,2,0.00
2013-12-17,68.9,48.4,33.1,30.2,26.9,23.7,72,47,20,30.40,30.17,4,0,4,0.00
2013-12-18,61.0,52.2,43.5,44.2,32.6,26.8,70,49,28,30.18,29.78,26,2,29,0.00
2013-12-19,51.6,47.1,38.8,41.2,38.5,33.4,82,72,63,29.89,29.69,24,5,29,0.00
2013-12-20,54.9,41.7,30.7,35.8,28.7,22.5,89,63,30,30.05,29.88,10,0,10,0.00
2013-12-21,64.8,46.8,32.2,37.2,30.4,23.0,73,55,33,30.15,29.96,13,1,14,0.00
2013-12-22,61.5,43.8,29.8,34.7,30.4,25.0,84,62,35,30.43,30.15,5,0,6,0.00
2013-12-23,63.7,44.9,30.6,33.8,29.9,25.2,84,59,32,30.54,30.42,13,1,13,0.00
2013-12-24,64.9,45.5,29.8,35.2,30.4,24.1,82,59,32,30.45,30.30,7,0,7,0.00
2013-12-25,64.2,44.7,29.8,32.2,25.3,17.8,83,52,21,30.50,30.36,16,1,16,0.00
2013-12-26,63.7,42.3,25.5,24.8,20.0,15.1,76,46,17,30.46,30.33,7,0,7,0.00
2013-12-27,65.3,43.8,26.8,23.4,18.9,14.7,71,42,15,30.42,30.21,5,0,5,0.00
2013-12-28,74.1,49.1,34.9,24.8,20.0,9.0,61,36,8,30.21,30.01,19,1,19,0.00
2013-12-29,62.2,43.5,28.2,21.2,16.1,10.9,63,38,14,30.36,30.16,20,1,20,0.00
2013-12-30,62.6,41.5,26.2,19.8,15.9,11.8,67,40,14,30.44,30.32,6,0,6,0.00
2013-12-31,63.1,43.0,28.6,20.1,17.1,12.7,65,39,16,30.37,30.22,6,0,6,0.00
2014-1-1,65.5,44.4,28.0,24.6,19.5,14.7,68,41,17,30.37,30.24,6,0,6,0.00
2014-1-2,66.6,45.7,30.0,28.2,24.2,20.5,70,46,23,30.34,30.18,6,0,6,0.00